Content
SEND FEEDBACK

Daily
Averages
Monthly
Summary
Brazil

TERESINA, PIAUI


Home > South America > Brazil > Piaui
Elevation: 99 meters     Latitude: 05 03S     Longitude: 042 48W

WEATHER
 
SELECT A DAY
Number of Records: 168,275;   Date Range: 6/30/96 - 12/18/14
 
SHARE

PRINT THIS DATA

[ ← Previous Day ]
WEATHER ALMANAC - 17 JANUARY, 2013
[ Next Day → ]
[ °F ]   °C
Weather ElementAverageHighLow
Temperature27.6 °C33 °C (3:00 pm)25 °C (6:00 am)
Dewpoint24.4 °C25.6 °C (3:00 am)22 °C (3:00 pm)
Humidity83.7 %100 % (6:00 am)45 % (3:00 pm)
Barometer1010.5 hPa1013.5 hPa (9:00 am)1008.1 hPa (3:00 pm)
Wind Speed1.8 km/h7.4 km/h (1:00 am)
Weather ElementAverage
Visibility10.9 km
Wind DirectionESE (115.5 °)

Weather ElementTotal
Precipitation---
Cooling Degree Days10.7 (Base 18.3)
Growing Degree Days19 (Base 10)
Averaged from 30 records on 17 January, 2013
WEATHER CONDITIONS BREAKOUT
WIND DIRECTION BREAKOUT
WEATHER BY HOUR - 17 JANUARY, 2013
[ °F ]   °C
Local TimeTemperatureDewpointHumidityBarometerVisibilityWind DirectionWind SpeedGust SpeedPrecipitationEventsConditions
1:00 AM27 °C25 °C89 %1009.1 hPa10 kmNW (320°)7.4 km/hMostly Cloudy
2:00 AM27 °C25 °C89 %1009.1 hPa10 kmCalmMostly Cloudy
3:00 AM26.7 °C25.6 °C90 %1008.8 hPa19.3 kmNW (320°)3.7 km/hPartly Cloudy
3:00 AM27 °C25 °C89 %1009.1 hPa10 kmNW (320°)3.7 km/hMostly Cloudy
4:00 AM27 °C25 °C89 %1009.1 hPa10 kmCalmMostly Cloudy
4:10 AM26 °C25 °C94 %1010.2 hPa4 kmCalmRainRain
4:25 AM26 °C25 °C94 %1009.1 hPa6 kmSE (130°)5.6 km/hRainLight Rain
5:00 AM26 °C25 °C94 %1010.2 hPa10 kmCalmRainLight Rain
6:00 AM25 °C25 °C100 %1011.2 hPa10 kmCalmRainLight Rain
6:27 AM25 °C25 °C100 %1011.2 hPa10 kmCalmOvercast
7:00 AM25 °C24 °C94 %1011.2 hPa10 kmCalmOvercast
8:00 AM25 °C25 °C100 %1013.2 hPa10 kmESE (110°)3.7 km/hOvercast
9:00 AM25 °C23.9 °C93 %1013.5 hPa19.3 kmENE (60°)3.7 km/hPartly Cloudy
9:00 AM25 °C24 °C94 %1013.2 hPa10 kmENE (60°)3.7 km/hScattered Clouds
10:00 AM25 °C24 °C94 %1013.2 hPa10 kmCalmScattered Clouds
11:00 AM27 °C24 °C84 %1012.2 hPa10 kmSSW (200°)3.7 km/hMostly Cloudy
12:00 PM27 °C24 °C84 %1011.2 hPa10 kmCalmMostly Cloudy
1:00 PM30 °C24 °C70 %1011.2 hPa10 kmCalmMostly Cloudy
2:00 PM31 °C23 °C62 %1009.1 hPa10 kmCalmScattered Clouds
3:00 PM32.8 °C22.2 °C45 %1008.5 hPa19.3 kmCalmScattered Clouds
3:00 PM33 °C22 °C52 %1008.1 hPa10 kmCalmPartly Cloudy
4:00 PM31 °C24 °C66 %1009.1 hPa10 kmWNW (300°)5.6 km/hMostly Cloudy
5:00 PM30 °C24 °C70 %1008.1 hPa10 kmCalmMostly Cloudy
6:00 PM30 °C25 °C74 %1008.1 hPa10 kmCalmMostly Cloudy
7:00 PM29 °C25 °C79 %1009.1 hPa10 kmWest (280°)1.9 km/hMostly Cloudy
8:00 PM28 °C25 °C84 %1010.2 hPa10 kmWSW (240°)1.9 km/hScattered Clouds
9:00 PM27.8 °C25 °C82 %1010.8 hPa19.3 kmSouth (180°)1.9 km/hPartly Cloudy
9:00 PM28 °C25 °C84 %1011.2 hPa10 kmSouth (180°)1.9 km/hScattered Clouds
10:00 PM27 °C24 °C84 %1011.2 hPa10 kmWNW (300°)1.9 km/hScattered Clouds
11:00 PM27 °C25 °C89 %1012.2 hPa10 kmNorth (350°)3.7 km/hMostly Cloudy
Hourly data recorded from SBTE, located 0 kilometers away from Teresina, Piaui







STORIES FROM OUR PARTNERS